�������l�o���
Date,Time,MP-1(��Sv/h),MP-2(��Sv/h),MP-3(��Sv/h),MP-4(��Sv/h),MP-5(��Sv/h),MP-6(��Sv/h),MP-7(��Sv/h),MP-8(��Sv/h),����,����(m/s),���J
2017/03/24,00:00,1.021,1.679,1.132,1.980,1.370,0.543,0.998,0.927,�k��,4.8,��
2017/03/24,00:10,1.020,1.679,1.131,1.979,1.369,0.542,1.000,0.929,�k��,4.6,��
2017/03/24,00:20,1.022,1.675,1.133,1.983,1.368,0.543,0.996,0.930,�k��,3.6,��
2017/03/24,00:30,1.021,1.678,1.130,1.978,1.367,0.540,0.999,0.927,�k��,2.9,��
2017/03/24,00:40,1.019,1.677,1.131,1.982,1.368,0.542,0.999,0.931,�k��,2.6,��
2017/03/24,00:50,1.023,1.677,1.131,1.982,1.369,0.542,1.001,0.929,�k��,3.2,��
2017/03/24,01:00,1.020,1.675,1.131,1.979,1.367,0.543,0.999,0.929,�k��,3.6,��
2017/03/24,01:10,1.022,1.677,1.131,1.979,1.368,0.542,0.999,0.929,�k��,3.4,��
2017/03/24,01:20,1.020,1.678,1.131,1.980,1.369,0.542,0.997,0.928,�k��,3.1,��
2017/03/24,01:30,1.018,1.678,1.130,1.979,1.370,0.543,0.999,0.928,�k��,3.0,��
2017/03/24,01:40,1.019,1.677,1.132,1.978,1.370,0.541,0.999,0.928,�k��,3.6,��
2017/03/24,01:50,1.021,1.676,1.132,1.981,1.368,0.540,1.001,0.929,�k��,3.2,��
2017/03/24,02:00,1.021,1.678,1.130,1.977,1.368,0.542,0.999,0.930,�k��,3.4,��
2017/03/24,02:10,1.020,1.677,1.134,1.979,1.372,0.541,1.000,0.929,�k��,3.4,��
2017/03/24,02:20,1.020,1.677,1.130,1.979,1.368,0.542,0.997,0.927,�k��,3.5,��
2017/03/24,02:30,1.018,1.676,1.130,1.978,1.368,0.542,0.998,0.929,�k��,3.0,��
2017/03/24,02:40,1.021,1.678,1.131,1.977,1.369,0.542,1.000,0.928,�k��,3.3,��
2017/03/24,02:50,1.020,1.676,1.131,1.976,1.368,0.543,0.999,0.930,�k��,3.0,��
2017/03/24,03:00,1.017,1.676,1.133,1.977,1.368,0.542,0.999,0.926,���k��,2.5,��
2017/03/24,03:10,1.021,1.677,1.131,1.981,1.370,0.542,1.000,0.931,���k��,2.5,��
2017/03/24,03:20,1.018,1.678,1.132,1.980,1.368,0.543,0.999,0.930,��,3.5,��
2017/03/24,03:30,1.018,1.677,1.129,1.981,1.368,0.541,0.999,0.929,���k��,3.8,��
2017/03/24,03:40,1.017,1.675,1.132,1.978,1.369,0.543,1.000,0.929,���k��,3.1,��
2017/03/24,03:50,1.019,1.674,1.130,1.979,1.369,0.542,0.999,0.930,�k��,3.7,��
2017/03/24,04:00,1.020,1.676,1.131,1.978,1.368,0.544,0.998,0.927,�k��,4.5,��
2017/03/24,04:10,1.020,1.677,1.131,1.980,1.367,0.541,1.000,0.928,���k��,4.9,��
2017/03/24,04:20,1.019,1.677,1.129,1.979,1.369,0.542,0.999,0.928,���k��,5.6,��
2017/03/24,04:30,1.019,1.676,1.129,1.982,1.367,0.540,1.000,0.929,�k��,4.3,��
2017/03/24,04:40,1.019,1.676,1.130,1.978,1.367,0.542,0.999,0.929,�k��,5.1,��
2017/03/24,04:50,1.019,1.677,1.132,1.980,1.367,0.541,0.998,0.929,���k��,5.9,��
2017/03/24,05:00,1.020,1.677,1.133,1.979,1.368,0.543,0.999,0.928,���k��,5.4,��
2017/03/24,05:10,1.018,1.675,1.131,1.977,1.370,0.541,0.999,0.929,�k��,6.1,��
2017/03/24,05:20,1.020,1.676,1.132,1.978,1.371,0.541,0.999,0.928,�k��,7.0,��
2017/03/24,05:30,1.019,1.677,1.132,1.979,1.367,0.541,0.997,0.929,�k��,6.7,��
2017/03/24,05:40,1.017,1.677,1.132,1.980,1.367,0.542,0.999,0.928,�k��,6.0,��
2017/03/24,05:50,1.018,1.678,1.131,1.981,1.368,0.541,0.998,0.927,�k��,6.9,��
2017/03/24,06:00,1.018,1.677,1.131,1.980,1.366,0.542,1.000,0.928,�k�k��,7.2,��
2017/03/24,06:10,1.019,1.676,1.133,1.982,1.365,0.542,0.997,0.928,�k��,7.5,��
2017/03/24,06:20,1.021,1.677,1.130,1.979,1.368,0.542,0.996,0.930,�k��,6.8,��
2017/03/24,06:30,1.019,1.678,1.131,1.981,1.369,0.541,0.998,0.928,�k��,6.5,��
2017/03/24,06:40,1.018,1.679,1.128,1.981,1.368,0.541,0.999,0.929,�k��,6.6,��
2017/03/24,06:50,1.019,1.679,1.133,1.982,1.368,0.542,0.999,0.929,�k��,7.5,��
2017/03/24,07:00,1.019,1.676,1.131,1.982,1.369,0.541,0.999,0.928,�k��,5.7,��
2017/03/24,07:10,1.020,1.679,1.132,1.979,1.369,0.545,1.001,0.930,�k��,5.7,��
2017/03/24,07:20,1.022,1.677,1.132,1.982,1.370,0.543,1.000,0.930,�k��,6.3,��
2017/03/24,07:30,1.020,1.680,1.134,1.981,1.368,0.541,1.002,0.931,�k��,5.2,��
2017/03/24,07:40,1.020,1.679,1.134,1.980,1.371,0.544,1.001,0.931,�k��,5.8,��
2017/03/24,07:50,1.020,1.680,1.135,1.988,1.370,0.542,1.005,0.930,�k�k��,5.3,��
2017/03/24,08:00,1.022,1.683,1.137,1.984,1.371,0.542,1.003,0.930,�k�k��,4.1,��
2017/03/24,08:10,1.019,1.679,1.134,1.985,1.370,0.541,1.003,0.930,�k��,4.5,��
2017/03/24,08:20,1.021,1.681,1.134,1.984,1.369,0.542,1.002,0.930,�k�k��,3.6,��
2017/03/24,08:30,1.023,1.680,1.139,1.982,1.370,0.544,1.003,0.931,�k��,5.0,��
2017/03/24,08:40,1.023,1.683,1.140,1.982,1.371,0.543,1.002,0.932,�k��,5.5,��
2017/03/24,08:50,1.024,1.679,1.146,1.985,1.372,0.543,0.998,0.931,�k��,6.5,��
2017/03/24,09:00,1.025,1.683,1.148,1.983,1.374,0.542,1.001,0.933,�k��,8.0,��
2017/03/24,09:10,1.025,1.681,1.147,1.981,1.373,0.543,1.000,0.931,�k��,8.1,��
2017/03/24,09:20,1.024,1.677,1.149,1.987,1.374,0.543,1.001,0.931,���k��,6.9,��
2017/03/24,09:30,1.025,1.678,1.149,1.985,1.376,0.544,1.000,0.933,�k��,11.3,��
2017/03/24,09:40,1.025,1.670,1.151,1.990,1.375,0.542,1.002,0.934,�k��,10.4,��
2017/03/24,09:50,1.023,1.678,1.152,1.989,1.372,0.542,1.002,0.932,�k��,11.7,��
2017/03/24,10:00,1.024,1.680,1.149,1.988,1.377,0.543,1.001,0.930,�k��,10.5,��
2017/03/24,10:10,1.027,1.671,1.152,1.987,1.375,0.543,1.000,0.930,�k��,10.4,��
2017/03/24,10:20,1.025,1.676,1.153,1.989,1.374,0.543,1.002,0.931,�k��,7.8,��
2017/03/24,10:30,1.026,1.681,1.154,1.990,1.374,0.543,1.001,0.930,�k��,7.7,��
2017/03/24,10:40,1.027,1.682,1.158,1.989,1.376,0.543,1.002,0.930,�k��,7.9,��
2017/03/24,10:50,1.028,1.680,1.157,1.987,1.379,0.544,1.003,0.930,�k��,8.4,��
2017/03/24,11:00,1.024,1.682,1.157,1.994,1.377,0.545,1.001,0.929,�k��,9.5,��
2017/03/24,11:10,1.026,1.682,1.158,1.988,1.377,0.545,1.000,0.929,�k��,10.8,��
2017/03/24,11:20,1.026,1.680,1.157,1.989,1.377,0.545,1.001,0.929,�k��,9.0,��
2017/03/24,11:30,1.030,1.680,1.158,1.990,1.382,0.545,1.001,0.930,�k��,8.1,��
2017/03/24,11:40,1.030,1.682,1.161,1.992,1.381,0.547,1.001,0.930,���k��,6.5,��
2017/03/24,11:50,1.029,1.669,1.160,1.990,1.379,0.547,1.002,0.931,���k��,8.3,��
2017/03/24,12:00,1.029,1.672,1.157,1.993,1.379,0.546,1.002,0.931,�k��,8.2,��
2017/03/24,12:10,1.030,1.679,1.163,1.993,1.377,0.547,1.003,0.931,�k��,8.3,��
2017/03/24,12:20,1.030,1.682,1.160,1.992,1.381,0.547,1.000,0.930,�k��,12.2,��
2017/03/24,12:30,1.030,1.686,1.160,1.992,1.379,0.545,1.000,0.931,�k��,11.6,��
2017/03/24,12:40,1.031,1.683,1.163,1.991,1.380,0.546,1.004,0.933,�k��,8.5,��
2017/03/24,12:50,1.031,1.687,1.162,1.992,1.382,0.546,1.002,0.933,�k��,8.5,��
2017/03/24,13:00,1.031,1.688,1.159,1.992,1.382,0.547,1.002,0.933,�k��,8.3,��
2017/03/24,13:10,1.032,1.688,1.161,1.992,1.381,0.547,1.003,0.933,�k��,10.2,��
2017/03/24,13:20,1.029,1.690,1.159,1.987,1.383,0.547,1.001,0.932,�k��,7.1,��
2017/03/24,13:30,1.031,1.687,1.158,1.990,1.380,0.547,1.002,0.930,�k�k��,11.9,��
2017/03/24,13:40,1.029,1.686,1.159,1.989,1.380,0.546,1.002,0.932,-,-,��
2017/03/24,13:50,1.030,1.687,1.162,1.995,1.381,0.545,1.004,0.932,-,-,-
2017/03/24,14:00,1.031,1.688,1.160,1.994,1.380,0.545,1.003,0.932,-,-,-
2017/03/24,14:10,1.030,1.688,1.161,1.997,1.380,0.548,1.003,0.933,-,-,-
2017/03/24,14:20,1.033,1.692,1.160,1.996,1.383,0.548,1.001,0.934,-,-,-
2017/03/24,14:30,1.032,1.691,1.155,1.996,1.383,0.546,1.002,0.935,-,-,-
2017/03/24,14:40,1.029,1.690,1.156,1.998,1.383,0.546,1.002,0.933,-,-,-
2017/03/24,14:50,1.030,1.692,1.155,1.998,1.385,0.546,1.001,0.933,-,-,-
2017/03/24,15:00,1.034,1.694,1.156,1.999,1.383,0.546,1.004,0.931,-,-,-
2017/03/24,15:10,1.032,1.689,1.159,1.998,1.386,0.546,1.003,0.932,-,-,-
2017/03/24,15:20,1.032,1.688,1.157,1.998,1.385,0.548,1.004,0.935,�k��,9.9,��
2017/03/24,15:30,1.032,1.690,1.159,2.000,1.384,0.545,1.004,0.934,�k��,10.4,��
2017/03/24,15:40,1.033,1.687,1.158,1.996,1.383,0.545,1.003,0.933,�k��,10.3,��
2017/03/24,15:50,1.034,1.693,1.158,1.998,1.385,0.546,1.001,0.933,�k��,12.4,��
2017/03/24,16:00,1.033,1.686,1.155,1.998,1.380,0.546,1.001,0.933,���k��,9.9,��
2017/03/24,16:10,1.033,1.671,1.154,2.000,1.381,0.548,1.002,0.933,���k��,12.4,��
2017/03/24,16:20,1.031,1.689,1.156,2.003,1.381,0.546,1.004,0.933,�k��,9.5,��
2017/03/24,16:30,1.030,1.694,1.157,1.997,1.380,0.547,1.002,0.935,���k��,9.6,��
2017/03/24,16:40,1.032,1.694,1.157,1.998,1.381,0.545,1.004,0.934,�k��,9.2,��
2017/03/24,16:50,1.032,1.693,1.158,1.999,1.383,0.546,1.006,0.933,�k��,11.4,��
2017/03/24,17:00,1.033,1.696,1.159,1.998,1.385,0.546,1.003,0.933,�k��,10.4,��
2017/03/24,17:10,1.030,1.691,1.157,2.000,1.386,0.545,1.004,0.933,���k��,7.3,��
2017/03/24,17:20,1.031,1.696,1.159,1.998,1.385,0.548,1.002,0.933,���k��,5.3,��
2017/03/24,17:30,1.030,1.697,1.157,1.997,1.385,0.546,0.998,0.933,���k��,5.9,��
2017/03/24,17:40,1.032,1.695,1.156,1.997,1.385,0.545,0.998,0.931,���k��,5.3,��
2017/03/24,17:50,1.031,1.694,1.156,1.997,1.384,0.545,1.000,0.932,��,6.0,��
2017/03/24,18:00,1.029,1.694,1.157,1.994,1.384,0.546,1.001,0.932,���k��,5.1,��
2017/03/24,18:10,1.028,1.693,1.156,1.998,1.383,0.546,0.999,0.932,���k��,5.3,��
2017/03/24,18:20,1.031,1.695,1.157,1.997,1.385,0.546,1.003,0.939,���k��,5.3,��
2017/03/24,18:30,1.030,1.695,1.154,1.997,1.383,0.545,1.001,0.932,�k��,8.8,��
2017/03/24,18:40,1.029,1.695,1.157,1.996,1.385,0.544,1.003,0.932,���k��,5.8,��
2017/03/24,18:50,1.030,1.692,1.154,1.997,1.386,0.545,1.000,0.933,���k��,5.5,��
2017/03/24,19:00,1.028,1.693,1.156,1.997,1.385,0.544,1.006,0.932,���k��,5.9,��
2017/03/24,19:10,1.031,1.693,1.156,2.001,1.384,0.546,1.004,0.932,���k��,5.3,��
2017/03/24,19:20,1.027,1.693,1.155,1.997,1.382,0.545,1.003,0.932,�k��,4.2,��
2017/03/24,19:30,1.029,1.693,1.157,1.998,1.385,0.546,1.003,0.934,�k��,4.6,��
2017/03/24,19:40,1.028,1.694,1.155,1.997,1.384,0.546,1.004,0.933,�k��,3.7,��
2017/03/24,19:50,1.028,1.695,1.154,1.997,1.383,0.545,1.003,0.933,�k��,2.8,��
2017/03/24,20:00,1.025,1.693,1.155,1.995,1.382,0.546,1.001,0.932,���k��,2.6,��
2017/03/24,20:10,1.028,1.692,1.154,1.997,1.382,0.544,1.003,0.931,���k��,3.6,��
2017/03/24,20:20,1.025,1.692,1.155,1.997,1.382,0.546,1.004,0.932,���k��,2.6,��
2017/03/24,20:30,1.027,1.693,1.153,1.995,1.384,0.544,1.000,0.930,���k��,3.1,��
2017/03/24,20:40,1.026,1.691,1.154,1.996,1.383,0.544,1.003,0.933,���k��,2.3,��
2017/03/24,20:50,1.027,1.690,1.155,1.996,1.381,0.545,1.001,0.931,���k��,2.6,��
2017/03/24,21:00,1.028,1.691,1.154,1.997,1.382,0.543,1.002,0.932,���k��,2.5,��
2017/03/24,21:10,1.025,1.691,1.153,2.000,1.384,0.543,1.002,0.932,���k��,2.3,��
2017/03/24,21:20,1.024,1.688,1.153,1.995,1.381,0.546,1.000,0.931,��,3.0,��
2017/03/24,21:30,1.025,1.690,1.151,1.995,1.384,0.544,1.002,0.930,��,4.8,��
2017/03/24,21:40,1.024,1.694,1.153,1.996,1.381,0.543,1.000,0.933,��,5.5,��
2017/03/24,21:50,1.026,1.689,1.152,1.995,1.385,0.544,1.000,0.930,��,6.4,��
2017/03/24,22:00,1.025,1.691,1.153,1.995,1.380,0.544,1.000,0.932,��,5.0,��
2017/03/24,22:10,1.026,1.689,1.152,1.994,1.381,0.545,1.003,0.931,��,4.3,��
2017/03/24,22:20,1.024,1.692,1.153,1.996,1.384,0.543,1.003,0.931,��,3.7,��
2017/03/24,22:30,1.025,1.691,1.151,1.994,1.381,0.544,1.001,0.931,���쐼,4.2,��
2017/03/24,22:40,1.027,1.690,1.154,1.996,1.381,0.544,1.000,0.932,���쐼,5.3,��
2017/03/24,22:50,1.023,1.690,1.153,1.995,1.381,0.544,1.001,0.932,���쐼,5.8,��
2017/03/24,23:00,1.025,1.692,1.153,1.994,1.381,0.543,1.003,0.929,��,5.7,��
2017/03/24,23:10,1.024,1.690,1.151,1.995,1.382,0.543,1.002,0.930,���쐼,5.3,��
2017/03/24,23:20,1.025,1.691,1.152,1.995,1.381,0.544,1.001,0.930,��,4.2,��
2017/03/24,23:30,1.024,1.687,1.154,1.992,1.381,0.545,1.001,0.929,���쐼,5.4,��
2017/03/24,23:40,1.024,1.690,1.153,1.996,1.382,0.543,1.003,0.931,���쐼,4.8,��
2017/03/24,23:50,1.024,1.687,1.153,1.996,1.380,0.545,1.000,0.931,���쐼,4.2,��
